Home > Weather > Bielefeld > Past weeks

Flag for Germany Past Weather in Bielefeld, North Rhine-Westphalia, Germany — Yesterday and Last 2 Weeks

Now
66 °F

Passing clouds.


Feels Like: 66 °F
Forecast: 56 / 69 °F
Wind: 5 mph from West

Location: Paderborn / Lippstadt

Current Time: Jun 29, 2016 at 8:19:24 PM

Latest Report: Jun 29, 2016 at 7:50 PM


Visibility: N/A

Pressure: 29.89 "Hg

Humidity: 49%

Dew Point: 46 °F

Location of BielefeldLocation

Past Weather in Bielefeld — Graph

°F

Bielefeld Temperature Yesterday

Maximum temperature yesterday: 72 °F (at 5:50 PM)
Minimum temperature yesterday: 54 °F (at 4:20 AM)
Average temperature yesterday: 62 °F

High & Low Weather Summary for the Past Weeks

 TemperatureHumidityPressure
High90 °F (Jun 23, 2:50 PM)100% (Jun 19, 8:50 AM)30.24 "Hg (Jun 19, 8:50 AM)
Low48 °F (Jun 20, 12:50 AM)38% (Jun 23, 2:20 PM)29.47 "Hg (Jun 14, 6:20 PM)
Average62 °F76%29.96 "Hg
* Reported Jun 14 6:20 PM — Jun 29 6:50 PM, Bielefeld, Weather by CustomWeather, © 2016

Note: Actual official high and low records may vary slightly from our data, if they occured in-between our weather recording intervals... More about our weather records

Advertising

Bielefeld Weather History for the Previous 24 Hours

Scroll right to see more
 ConditionsComfort  
Time TempWeatherWind HumidityBarometerVisibility
6:50 PM
Wed, Jun 29
66 °FPassing clouds.9 mph46%29.89 "HgN/A
6:20 PM68 °FPassing clouds.10 mph43%29.89 "HgN/A
5:50 PM68 °FSunny.10 mph46%29.92 "Hg10 mi
5:20 PM70 °FPassing clouds.13 mph43%29.92 "HgN/A
4:50 PM68 °FPassing clouds.15 mph40%29.92 "HgN/A
4:20 PM68 °FScattered clouds.16 mph43%29.92 "HgN/A
3:50 PM68 °FScattered clouds.13 mph43%29.92 "HgN/A
3:20 PM68 °FScattered clouds.15 mph46%29.92 "HgN/A
2:50 PM66 °FScattered clouds.14 mph49%29.92 "HgN/A
2:20 PM66 °FScattered clouds.20 mph56%29.92 "HgN/A
1:50 PM64 °FScattered clouds.16 mph56%29.92 "HgN/A
1:20 PM64 °FScattered clouds.16 mph60%29.92 "HgN/A
12:50 PM63 °FScattered clouds.18 mph59%29.92 "HgN/A
12:20 PM63 °FScattered clouds.21 mph59%29.92 "HgN/A
11:50 AM63 °FBroken clouds.20 mph59%29.89 "HgN/A
11:20 AM61 °FBroken clouds.18 mph63%29.89 "HgN/A
10:50 AM61 °FBroken clouds.21 mph68%29.89 "HgN/A
10:20 AM63 °FScattered clouds.18 mph64%29.89 "HgN/A
9:50 AM61 °FPassing clouds.20 mph68%29.89 "HgN/A
9:20 AM59 °FPassing clouds.14 mph68%29.89 "HgN/A
8:50 AM61 °FPassing clouds.16 mph72%29.89 "HgN/A
8:20 AM61 °FPassing clouds.14 mph77%29.86 "HgN/A
7:50 AM61 °FScattered clouds.10 mph83%29.86 "HgN/A
7:20 AM59 °FScattered clouds.9 mph88%29.86 "HgN/A
6:50 AM59 °FPartly sunny.9 mph82%29.86 "HgN/A
6:20 AM59 °FLight rain. Partly sunny.10 mph88%29.86 "HgN/A
5:50 AM59 °FLight rain. Passing clouds.12 mph88%29.83 "HgN/A
5:20 AM61 °FLight rain. Passing clouds.14 mph83%29.83 "HgN/A
4:50 AM61 °FPassing clouds.9 mph83%29.83 "HgN/A
4:20 AM61 °FPassing clouds.12 mph83%29.83 "HgN/A
3:50 AM61 °FLight rain. Passing clouds.9 mph83%29.83 "HgN/A
3:20 AM61 °FLight rain. Passing clouds.10 mph88%29.83 "HgN/A
2:50 AM61 °FLight rain. Passing clouds.9 mph83%29.86 "HgN/A
2:20 AM64 °FSprinkles. Passing clouds.10 mph68%29.83 "HgN/A
1:50 AM64 °FClear.9 mph64%29.86 "Hg10 mi
1:20 AM64 °FClear.7 mph64%29.86 "Hg10 mi
12:50 AM64 °FClear.7 mph60%29.89 "Hg10 mi
12:20 AM64 °FClear.8 mph60%29.89 "Hg10 mi
11:50 PM
Tue, Jun 28
64 °FClear.7 mph64%29.89 "Hg10 mi
11:20 PM64 °FPassing clouds.3 mph64%29.89 "HgN/A
10:50 PM64 °FClear.6 mph64%29.89 "Hg10 mi
10:20 PM66 °FSunny.5 mph60%29.92 "Hg10 mi
9:50 PM66 °FSunny.6 mph60%29.92 "Hg10 mi
9:20 PM66 °FSunny.6 mph60%29.92 "Hg10 mi
8:50 PM68 °FSunny.6 mph56%29.92 "Hg10 mi
8:20 PM70 °FPassing clouds.6 mph57%29.92 "HgN/A
Weather by CustomWeather, © 2016

See weather overviewHow to use our weather pages